Year,Month,Day,Hour,Minute,Value (Times are PST for temperature in C)
2013,04,23,00,00,6.10
2013,04,23,00,01,6.10
2013,04,23,00,02,6.10
2013,04,23,00,03,6.10
2013,04,23,00,04,6.10
2013,04,23,00,05,6.10
2013,04,23,00,06,6.00
2013,04,23,00,07,6.00
2013,04,23,00,08,6.00
2013,04,23,00,09,6.00
2013,04,23,00,10,6.00
2013,04,23,00,11,6.00
2013,04,23,00,12,5.90
2013,04,23,00,13,5.90
2013,04,23,00,14,5.90
2013,04,23,00,15,5.90
2013,04,23,00,16,5.90
2013,04,23,00,17,5.90
2013,04,23,00,18,5.90
2013,04,23,00,19,5.90
2013,04,23,00,20,5.90
2013,04,23,00,21,5.90
2013,04,23,00,22,5.90
2013,04,23,00,23,5.90
2013,04,23,00,24,5.90
2013,04,23,00,25,5.90
2013,04,23,00,26,5.90
2013,04,23,00,27,6.00
2013,04,23,00,28,6.00
2013,04,23,00,29,6.00
2013,04,23,00,30,6.00
2013,04,23,00,31,6.00
2013,04,23,00,32,6.00
2013,04,23,00,33,5.90
2013,04,23,00,34,5.90
2013,04,23,00,35,5.90
2013,04,23,00,36,5.90
2013,04,23,00,37,5.90
2013,04,23,00,38,5.90
2013,04,23,00,39,5.90
2013,04,23,00,40,5.90
2013,04,23,00,41,5.90
2013,04,23,00,42,5.90
2013,04,23,00,43,5.90
2013,04,23,00,44,5.90
2013,04,23,00,45,5.90
2013,04,23,00,46,5.90
2013,04,23,00,47,5.90
2013,04,23,00,48,5.80
2013,04,23,00,49,5.80
2013,04,23,00,50,5.80
2013,04,23,00,51,5.80
2013,04,23,00,52,5.70
2013,04,23,00,53,5.70
2013,04,23,00,54,5.70
2013,04,23,00,55,5.70
2013,04,23,00,56,5.70
2013,04,23,00,57,5.70
2013,04,23,00,58,5.70
2013,04,23,00,59,5.70
2013,04,23,01,00,5.70
2013,04,23,01,01,5.70
2013,04,23,01,02,5.70
2013,04,23,01,03,5.70
2013,04,23,01,04,5.60
2013,04,23,01,05,5.60
2013,04,23,01,06,5.60
2013,04,23,01,07,5.60
2013,04,23,01,08,5.60
2013,04,23,01,09,5.50
2013,04,23,01,10,5.50
2013,04,23,01,11,5.50
2013,04,23,01,12,5.40
2013,04,23,01,13,5.40
2013,04,23,01,14,5.40
2013,04,23,01,15,5.40
2013,04,23,01,16,5.40
2013,04,23,01,17,5.30
2013,04,23,01,18,5.30
2013,04,23,01,19,5.30
2013,04,23,01,20,5.30
2013,04,23,01,21,5.30
2013,04,23,01,22,5.30
2013,04,23,01,23,5.30
2013,04,23,01,24,5.30
2013,04,23,01,25,5.30
2013,04,23,01,26,5.30
2013,04,23,01,27,5.30
2013,04,23,01,28,5.30
2013,04,23,01,29,5.30
2013,04,23,01,30,5.30
2013,04,23,01,31,5.30
2013,04,23,01,32,5.30
2013,04,23,01,33,5.30
2013,04,23,01,34,5.30
2013,04,23,01,35,5.30
2013,04,23,01,36,5.30
2013,04,23,01,37,5.30
2013,04,23,01,38,5.30
2013,04,23,01,39,5.30
2013,04,23,01,40,5.20
2013,04,23,01,41,5.20
2013,04,23,01,42,5.20
2013,04,23,01,43,5.20
2013,04,23,01,44,5.20
2013,04,23,01,45,5.20
2013,04,23,01,46,5.20
2013,04,23,01,47,5.20
2013,04,23,01,48,5.20
2013,04,23,01,49,5.20
2013,04,23,01,50,5.20
2013,04,23,01,51,5.20
2013,04,23,01,52,5.20
2013,04,23,01,53,5.10
2013,04,23,01,54,5.10
2013,04,23,01,55,5.10
2013,04,23,01,56,5.10
2013,04,23,01,57,5.10
2013,04,23,01,58,5.10
2013,04,23,01,59,5.10
2013,04,23,02,00,5.10
2013,04,23,02,01,5.10
2013,04,23,02,02,5.10
2013,04,23,02,03,5.10
2013,04,23,02,04,5.10
2013,04,23,02,05,5.10
2013,04,23,02,06,5.10
2013,04,23,02,07,5.10
2013,04,23,02,08,5.10
2013,04,23,02,09,5.10
2013,04,23,02,10,5.00
2013,04,23,02,11,5.00
2013,04,23,02,12,5.00
2013,04,23,02,13,5.00
2013,04,23,02,14,5.00
2013,04,23,02,15,5.00
2013,04,23,02,16,4.90
2013,04,23,02,17,4.90
2013,04,23,02,18,4.90
2013,04,23,02,19,4.90
2013,04,23,02,20,4.90
2013,04,23,02,21,4.80
2013,04,23,02,22,4.80
2013,04,23,02,23,4.80
2013,04,23,02,24,4.80
2013,04,23,02,25,4.80
2013,04,23,02,26,4.80
2013,04,23,02,27,4.70
2013,04,23,02,28,4.70
2013,04,23,02,29,4.70
2013,04,23,02,30,4.70
2013,04,23,02,31,4.70
2013,04,23,02,32,4.70
2013,04,23,02,33,4.70
2013,04,23,02,34,4.60
2013,04,23,02,35,4.60
2013,04,23,02,36,4.60
2013,04,23,02,37,4.60
2013,04,23,02,38,4.60
2013,04,23,02,39,4.60
2013,04,23,02,40,4.60
2013,04,23,02,41,4.60
2013,04,23,02,42,4.60
2013,04,23,02,43,4.60
2013,04,23,02,44,4.60
2013,04,23,02,45,4.60
2013,04,23,02,46,4.60
2013,04,23,02,47,4.60
2013,04,23,02,48,4.60
2013,04,23,02,49,4.60
2013,04,23,02,50,4.50
2013,04,23,02,51,4.50
2013,04,23,02,52,4.50
2013,04,23,02,53,4.50
2013,04,23,02,54,4.50
2013,04,23,02,55,4.40
2013,04,23,02,56,4.40
2013,04,23,02,57,4.40
2013,04,23,02,58,4.40
2013,04,23,02,59,4.40
2013,04,23,03,00,4.40
2013,04,23,03,01,4.40
2013,04,23,03,02,4.40
2013,04,23,03,03,4.30
2013,04,23,03,06,4.30
2013,04,23,03,07,4.30
2013,04,23,03,08,4.30
2013,04,23,03,09,4.30
2013,04,23,03,10,4.30
2013,04,23,03,11,4.30
2013,04,23,03,12,4.30
2013,04,23,03,13,4.30
2013,04,23,03,14,4.30
2013,04,23,03,15,4.30
2013,04,23,03,16,4.30
2013,04,23,03,17,4.30
2013,04,23,03,18,4.30
2013,04,23,03,19,4.40
2013,04,23,03,20,4.40
2013,04,23,03,21,4.40
2013,04,23,03,22,4.40
2013,04,23,03,23,4.40
2013,04,23,03,24,4.40
2013,04,23,03,25,4.40
2013,04,23,03,26,4.40
2013,04,23,03,27,4.40
2013,04,23,03,28,4.40
2013,04,23,03,29,4.40
2013,04,23,03,30,4.40
2013,04,23,03,31,4.40
2013,04,23,03,32,4.40
2013,04,23,03,33,4.40
2013,04,23,03,34,4.40
2013,04,23,03,35,4.40
2013,04,23,03,36,4.40
2013,04,23,03,37,4.40
2013,04,23,03,38,4.40
2013,04,23,03,39,4.40
2013,04,23,03,40,4.40
2013,04,23,03,41,4.40
2013,04,23,03,42,4.40
2013,04,23,03,43,4.40
2013,04,23,03,44,4.40
2013,04,23,03,45,4.40
2013,04,23,03,46,4.40
2013,04,23,03,47,4.40
2013,04,23,03,48,4.40
2013,04,23,03,49,4.40
2013,04,23,03,50,4.40
2013,04,23,03,51,4.40
2013,04,23,03,52,4.40
2013,04,23,03,53,4.40
2013,04,23,03,54,4.40
2013,04,23,03,55,4.40
2013,04,23,03,56,4.30
2013,04,23,03,57,4.30
2013,04,23,03,58,4.30
2013,04,23,03,59,4.30
2013,04,23,04,00,4.30
2013,04,23,04,01,4.30
2013,04,23,04,02,4.30
2013,04,23,04,03,4.30
2013,04,23,04,04,4.20
2013,04,23,04,05,4.20
2013,04,23,04,06,4.20
2013,04,23,04,07,4.30
2013,04,23,04,08,4.30
2013,04,23,04,09,4.30
2013,04,23,04,10,4.30
2013,04,23,04,11,4.30
2013,04,23,04,12,4.30
2013,04,23,04,13,4.30
2013,04,23,04,14,4.30
2013,04,23,04,15,4.30
2013,04,23,04,16,4.30
2013,04,23,04,17,4.40
2013,04,23,04,18,4.40
2013,04,23,04,19,4.40
2013,04,23,04,20,4.30
2013,04,23,04,21,4.30
2013,04,23,04,22,4.20
2013,04,23,04,23,4.20
2013,04,23,04,24,4.10
2013,04,23,04,25,4.00
2013,04,23,04,26,4.00
2013,04,23,04,27,3.90
2013,04,23,04,28,3.80
2013,04,23,04,29,3.80
2013,04,23,04,30,3.80
2013,04,23,04,31,3.70
2013,04,23,04,32,3.70
2013,04,23,04,33,3.70
2013,04,23,04,34,3.60
2013,04,23,04,35,3.60
2013,04,23,04,36,3.60
2013,04,23,04,37,3.60
2013,04,23,04,38,3.50
2013,04,23,04,39,3.50
2013,04,23,04,40,3.50
2013,04,23,04,41,3.40
2013,04,23,04,42,3.40
2013,04,23,04,43,3.40
2013,04,23,04,44,3.40
2013,04,23,04,45,3.40
2013,04,23,04,46,3.40
2013,04,23,04,47,3.40
2013,04,23,04,48,3.40
2013,04,23,04,49,3.40
2013,04,23,04,50,3.40
2013,04,23,04,51,3.40
2013,04,23,04,52,3.40
2013,04,23,04,53,3.40
2013,04,23,04,54,3.40
2013,04,23,04,55,3.40
2013,04,23,04,56,3.40
2013,04,23,04,57,3.40
2013,04,23,04,58,3.40
2013,04,23,04,59,3.40
2013,04,23,05,00,3.40
2013,04,23,05,01,3.30
2013,04,23,05,02,3.30
2013,04,23,05,03,3.30
2013,04,23,05,04,3.30
2013,04,23,05,05,3.20
2013,04,23,05,06,3.20
2013,04,23,05,07,3.20
2013,04,23,05,08,3.20
2013,04,23,05,09,3.20
2013,04,23,05,10,3.20
2013,04,23,05,11,3.20
2013,04,23,05,12,3.30
2013,04,23,05,13,3.30
2013,04,23,05,14,3.30
2013,04,23,05,15,3.30
2013,04,23,05,16,3.30
2013,04,23,05,17,3.40
2013,04,23,05,18,3.50
2013,04,23,05,19,3.50
2013,04,23,05,20,3.60
2013,04,23,05,21,3.70
2013,04,23,05,22,3.80
2013,04,23,05,23,3.90
2013,04,23,05,24,3.90
2013,04,23,05,25,4.00
2013,04,23,05,26,4.10
2013,04,23,05,27,4.10
2013,04,23,05,28,4.10
2013,04,23,05,29,4.20
2013,04,23,05,30,4.20
2013,04,23,05,31,4.20
2013,04,23,05,32,4.30
2013,04,23,05,33,4.30
2013,04,23,05,34,4.30
2013,04,23,05,35,4.30
2013,04,23,05,36,4.30
2013,04,23,05,37,4.30
2013,04,23,05,38,4.30
2013,04,23,05,39,4.30
2013,04,23,05,40,4.20
2013,04,23,05,41,4.20
2013,04,23,05,42,4.20
2013,04,23,05,43,4.20
2013,04,23,05,44,4.20
2013,04,23,05,45,4.20
2013,04,23,05,46,4.20
2013,04,23,05,47,4.20
2013,04,23,05,48,4.20
2013,04,23,05,49,4.20
2013,04,23,05,50,4.20
2013,04,23,05,51,4.10
2013,04,23,05,52,4.10
2013,04,23,05,53,4.10
2013,04,23,05,54,4.10
2013,04,23,05,55,4.00
2013,04,23,05,56,4.00
2013,04,23,05,57,4.00
2013,04,23,05,58,3.90
2013,04,23,05,59,3.90
2013,04,23,06,00,3.90
2013,04,23,06,01,3.80
2013,04,23,06,02,3.80
2013,04,23,06,03,3.80
2013,04,23,06,04,3.80
2013,04,23,06,05,3.80
2013,04,23,06,06,3.80
2013,04,23,06,07,3.80
2013,04,23,06,08,3.80
2013,04,23,06,09,3.80
2013,04,23,06,10,3.80
2013,04,23,06,11,3.80
2013,04,23,06,12,3.70
2013,04,23,06,13,3.70
2013,04,23,06,14,3.70
2013,04,23,06,15,3.70
2013,04,23,06,16,3.70
2013,04,23,06,17,3.70
2013,04,23,06,18,3.80
2013,04,23,06,19,3.80
2013,04,23,06,20,3.80
2013,04,23,06,21,3.80
2013,04,23,06,22,3.80
2013,04,23,06,23,3.80
2013,04,23,06,24,3.80
2013,04,23,06,25,3.90
2013,04,23,06,26,3.90
2013,04,23,06,27,3.90
2013,04,23,06,28,3.90
2013,04,23,06,29,4.00
2013,04,23,06,30,4.00
2013,04,23,06,31,4.00
2013,04,23,06,32,4.00
2013,04,23,06,33,3.90
2013,04,23,06,34,3.90
2013,04,23,06,35,3.90
2013,04,23,06,36,3.90
2013,04,23,06,37,3.90
2013,04,23,06,38,3.80
2013,04,23,06,39,3.80
2013,04,23,06,40,3.80
2013,04,23,06,41,3.80
2013,04,23,06,42,3.80
2013,04,23,06,43,3.80
2013,04,23,06,44,3.80
2013,04,23,06,45,3.80
2013,04,23,06,46,3.80
2013,04,23,06,47,3.80
2013,04,23,06,48,3.80
2013,04,23,06,49,3.80
2013,04,23,06,50,3.80
2013,04,23,06,51,3.80
2013,04,23,06,52,3.80
2013,04,23,06,53,3.80
2013,04,23,06,54,3.80
2013,04,23,06,55,3.80
2013,04,23,06,56,3.80
2013,04,23,06,57,3.80
2013,04,23,06,58,3.80
2013,04,23,06,59,3.80
2013,04,23,07,00,3.80
2013,04,23,07,01,3.80
2013,04,23,07,02,3.80
2013,04,23,07,03,3.80
2013,04,23,07,04,3.90
2013,04,23,07,05,3.90
2013,04,23,07,06,3.90
2013,04,23,07,07,3.90
2013,04,23,07,08,3.90
2013,04,23,07,09,3.90
2013,04,23,07,10,4.00
2013,04,23,07,11,4.00
2013,04,23,07,12,4.00
2013,04,23,07,13,4.00
2013,04,23,07,14,4.10
2013,04,23,07,15,4.10
2013,04,23,07,16,4.10
2013,04,23,07,17,4.10
2013,04,23,07,18,4.10
2013,04,23,07,19,4.20
2013,04,23,07,20,4.20
2013,04,23,07,21,4.20
2013,04,23,07,22,4.20
2013,04,23,07,23,4.20
2013,04,23,07,24,4.20
2013,04,23,07,25,4.30
2013,04,23,07,26,4.30
2013,04,23,07,27,4.30
2013,04,23,07,28,4.30
2013,04,23,07,29,4.30
2013,04,23,07,30,4.40
2013,04,23,07,31,4.40
2013,04,23,07,32,4.40
2013,04,23,07,33,4.50
2013,04,23,07,34,4.50
2013,04,23,07,35,4.50
2013,04,23,07,36,4.60
2013,04,23,07,37,4.60
2013,04,23,07,38,4.60
2013,04,23,07,39,4.60
2013,04,23,07,40,4.70
2013,04,23,07,41,4.70
2013,04,23,07,42,4.70
2013,04,23,07,43,4.70
2013,04,23,07,44,4.70
2013,04,23,07,45,4.80
2013,04,23,07,46,4.80
2013,04,23,07,47,4.80
2013,04,23,07,48,4.80
2013,04,23,07,49,4.90
2013,04,23,07,50,4.90
2013,04,23,07,51,4.90
2013,04,23,07,52,5.00
2013,04,23,07,53,5.00
2013,04,23,07,54,5.10
2013,04,23,07,55,5.10
2013,04,23,07,56,5.10
2013,04,23,07,57,5.10
2013,04,23,07,58,5.20
2013,04,23,07,59,5.20
2013,04,23,08,00,5.20
2013,04,23,08,01,5.20
2013,04,23,08,02,5.30
2013,04,23,08,03,5.30
2013,04,23,08,04,5.30
2013,04,23,08,05,5.40
2013,04,23,08,06,5.40
2013,04,23,08,07,5.40
2013,04,23,08,08,5.50
2013,04,23,08,09,5.50
2013,04,23,08,10,5.50
2013,04,23,08,11,5.60
2013,04,23,08,12,5.60
2013,04,23,08,13,5.60
2013,04,23,08,14,5.70
2013,04,23,08,15,5.70
2013,04,23,08,16,5.70
2013,04,23,08,17,5.80
2013,04,23,08,18,5.80
2013,04,23,08,19,5.80
2013,04,23,08,20,5.80
2013,04,23,08,21,5.90
2013,04,23,08,22,5.90
2013,04,23,08,23,5.90
2013,04,23,08,24,5.90
2013,04,23,08,25,6.00
2013,04,23,08,26,6.00
2013,04,23,08,27,6.00
2013,04,23,08,28,6.10
2013,04,23,08,29,6.10
2013,04,23,08,30,6.10
2013,04,23,08,31,6.10
2013,04,23,08,32,6.10
2013,04,23,08,33,6.10
2013,04,23,08,34,6.10
2013,04,23,08,35,6.20
2013,04,23,08,36,6.20
2013,04,23,08,37,6.20
2013,04,23,08,38,6.20
2013,04,23,08,39,6.20
2013,04,23,08,40,6.20
2013,04,23,08,41,6.20
2013,04,23,08,42,6.30
2013,04,23,08,43,6.30
2013,04,23,08,44,6.30
2013,04,23,08,45,6.30
2013,04,23,08,46,6.30
2013,04,23,08,47,6.30
2013,04,23,08,48,6.30
2013,04,23,08,49,6.40
2013,04,23,08,50,6.40
2013,04,23,08,51,6.40
2013,04,23,08,52,6.40
2013,04,23,08,53,6.40
2013,04,23,08,54,6.40
2013,04,23,08,55,6.40
2013,04,23,08,56,6.40
2013,04,23,08,57,6.40
2013,04,23,08,58,6.50
2013,04,23,08,59,6.50
2013,04,23,09,00,6.50
2013,04,23,09,01,6.50
2013,04,23,09,02,6.50
2013,04,23,09,03,6.50
2013,04,23,09,04,6.60
2013,04,23,09,05,6.60
2013,04,23,09,06,6.60
2013,04,23,09,07,6.70
2013,04,23,09,08,6.70
2013,04,23,09,09,6.80
2013,04,23,09,10,6.80
2013,04,23,09,11,6.90
2013,04,23,09,12,7.00
2013,04,23,09,13,7.00
2013,04,23,09,14,7.10
2013,04,23,09,15,7.20
2013,04,23,09,16,7.20
2013,04,23,09,17,7.30
2013,04,23,09,18,7.40
2013,04,23,09,19,7.50
2013,04,23,09,20,7.60
2013,04,23,09,21,7.70
2013,04,23,09,22,7.80
2013,04,23,09,23,7.80
2013,04,23,09,24,7.90
2013,04,23,09,25,8.00
2013,04,23,09,26,8.00
2013,04,23,09,27,8.10
2013,04,23,09,28,8.20
2013,04,23,09,29,8.30
2013,04,23,09,30,8.30
2013,04,23,09,31,8.40
2013,04,23,09,32,8.40
2013,04,23,09,33,8.50
2013,04,23,09,34,8.60
2013,04,23,09,35,8.60
2013,04,23,09,36,8.70
2013,04,23,09,37,8.80
2013,04,23,09,38,8.90
2013,04,23,09,39,9.00
2013,04,23,09,40,9.10
2013,04,23,09,41,9.10
2013,04,23,09,42,9.10
2013,04,23,09,43,9.20
2013,04,23,09,44,9.20
2013,04,23,09,45,9.20
2013,04,23,09,46,9.20
2013,04,23,09,47,9.20
2013,04,23,09,48,9.30
2013,04,23,09,49,9.30
2013,04,23,09,50,9.40
2013,04,23,09,51,9.40
2013,04,23,09,52,9.40
2013,04,23,09,53,9.50
2013,04,23,09,54,9.60
2013,04,23,09,55,9.60
2013,04,23,09,56,9.60
2013,04,23,09,57,9.70
2013,04,23,09,58,9.80
2013,04,23,09,59,9.80
2013,04,23,10,00,9.90
2013,04,23,10,01,10.00
2013,04,23,10,02,10.00
2013,04,23,10,03,10.10
2013,04,23,10,04,10.10
2013,04,23,10,05,10.10
2013,04,23,10,06,10.10
2013,04,23,10,07,10.10
2013,04,23,10,08,10.20
2013,04,23,10,09,10.20
2013,04,23,10,10,10.20
2013,04,23,10,11,10.20
2013,04,23,10,12,10.20
2013,04,23,10,13,10.20
2013,04,23,10,14,10.20
2013,04,23,10,15,10.20
2013,04,23,10,16,10.20
2013,04,23,10,17,10.30
2013,04,23,10,18,10.20
2013,04,23,10,19,10.20
2013,04,23,10,20,10.20
2013,04,23,10,21,10.20
2013,04,23,10,22,10.20
2013,04,23,10,23,10.20
2013,04,23,10,24,10.20
2013,04,23,10,25,10.20
2013,04,23,10,26,10.20
2013,04,23,10,27,10.20
2013,04,23,10,28,10.10
2013,04,23,10,29,10.10
2013,04,23,10,30,10.10
2013,04,23,10,31,10.10
2013,04,23,10,32,10.10
2013,04,23,10,33,10.10
2013,04,23,10,34,10.10
2013,04,23,10,35,10.10
2013,04,23,10,36,10.10
2013,04,23,10,37,10.10
2013,04,23,10,38,10.20
2013,04,23,10,39,10.20
2013,04,23,10,40,10.20
2013,04,23,10,41,10.30
2013,04,23,10,42,10.30
2013,04,23,10,43,10.30
2013,04,23,10,44,10.40
2013,04,23,10,45,10.40
2013,04,23,10,46,10.40
2013,04,23,10,47,10.40
2013,04,23,10,48,10.40
2013,04,23,10,49,10.40
2013,04,23,10,50,10.40
2013,04,23,10,51,10.40
2013,04,23,10,52,10.40
2013,04,23,10,53,10.40
2013,04,23,10,54,10.50
2013,04,23,10,55,10.50
2013,04,23,10,56,10.60
2013,04,23,10,57,10.70
2013,04,23,10,58,10.70
2013,04,23,10,59,10.80
2013,04,23,11,00,10.80
2013,04,23,11,01,10.90
2013,04,23,11,02,11.00
2013,04,23,11,03,11.10
2013,04,23,11,04,11.20
2013,04,23,11,05,11.30
2013,04,23,11,06,11.40
2013,04,23,11,07,11.40
2013,04,23,11,08,11.50
2013,04,23,11,09,11.50
2013,04,23,11,10,11.60
2013,04,23,11,11,11.60
2013,04,23,11,12,11.70
2013,04,23,11,13,11.70
2013,04,23,11,14,11.70
2013,04,23,11,15,11.70
2013,04,23,11,16,11.60
2013,04,23,11,17,11.60
2013,04,23,11,18,11.50
2013,04,23,11,19,11.50
2013,04,23,11,20,11.40
2013,04,23,11,21,11.40
2013,04,23,11,22,11.50
2013,04,23,11,23,11.60
2013,04,23,11,24,11.70
2013,04,23,11,25,11.60
2013,04,23,11,26,11.70
2013,04,23,11,27,11.70
2013,04,23,11,28,11.80
2013,04,23,11,29,11.80
2013,04,23,11,30,11.80
2013,04,23,11,31,11.80
2013,04,23,11,32,11.90
2013,04,23,11,33,12.00
2013,04,23,11,34,11.90
2013,04,23,11,35,12.00
2013,04,23,11,36,12.10
2013,04,23,11,37,12.10
2013,04,23,11,38,12.10
2013,04,23,11,39,12.10
2013,04,23,11,40,12.20
2013,04,23,11,41,12.20
2013,04,23,11,42,12.30
2013,04,23,11,43,12.50
2013,04,23,11,44,12.50
2013,04,23,11,45,12.60
2013,04,23,11,46,12.70
2013,04,23,11,47,12.70
2013,04,23,11,48,12.80
2013,04,23,11,49,12.80
2013,04,23,11,50,12.80
2013,04,23,11,51,12.90
2013,04,23,11,52,12.90
2013,04,23,11,53,12.90
2013,04,23,11,54,12.90
2013,04,23,11,55,12.90
2013,04,23,11,56,12.80
2013,04,23,11,57,12.80
2013,04,23,11,58,12.80
2013,04,23,11,59,12.80
2013,04,23,12,00,12.70
2013,04,23,12,01,12.70
2013,04,23,12,02,12.70
2013,04,23,12,03,12.60
2013,04,23,12,04,12.60
2013,04,23,12,05,12.50
2013,04,23,12,06,12.50
2013,04,23,12,07,12.50
2013,04,23,12,08,12.50
2013,04,23,12,09,12.60
2013,04,23,12,10,12.60
2013,04,23,12,11,12.60
2013,04,23,12,12,12.70
2013,04,23,12,13,12.70
2013,04,23,12,14,12.70
2013,04,23,12,15,12.60
2013,04,23,12,16,12.40
2013,04,23,12,17,12.30
2013,04,23,12,18,12.30
2013,04,23,12,19,12.40
2013,04,23,12,20,12.40
2013,04,23,12,21,12.50
2013,04,23,12,22,12.50
2013,04,23,12,23,12.50
2013,04,23,12,24,12.40
2013,04,23,12,25,12.30
2013,04,23,12,26,12.20
2013,04,23,12,27,12.10
2013,04,23,12,28,12.10
2013,04,23,12,29,12.00
2013,04,23,12,30,12.00
2013,04,23,12,31,12.10
2013,04,23,12,32,12.10
2013,04,23,12,33,12.20
2013,04,23,12,34,12.30
2013,04,23,12,35,12.40
2013,04,23,12,36,12.40
2013,04,23,12,37,12.40
2013,04,23,12,38,12.30
2013,04,23,12,39,12.30
2013,04,23,12,40,12.30
2013,04,23,12,41,12.30
2013,04,23,12,42,12.30
2013,04,23,12,43,12.30
2013,04,23,12,44,12.30
2013,04,23,12,45,12.40
2013,04,23,12,46,12.50
2013,04,23,12,47,12.60
2013,04,23,12,48,12.70
2013,04,23,12,49,12.90
2013,04,23,12,50,13.00
2013,04,23,12,51,13.10
2013,04,23,12,52,13.00
2013,04,23,12,53,12.90
2013,04,23,12,54,12.90
2013,04,23,12,55,12.80
2013,04,23,12,56,12.90
2013,04,23,12,57,12.90
2013,04,23,12,58,13.00
2013,04,23,12,59,13.10
2013,04,23,13,00,13.10
2013,04,23,13,01,13.10
2013,04,23,13,02,13.10
2013,04,23,13,03,13.10
2013,04,23,13,04,13.10
2013,04,23,13,05,13.00
2013,04,23,13,06,12.90
2013,04,23,13,07,12.90
2013,04,23,13,08,12.90
2013,04,23,13,09,13.00
2013,04,23,13,10,13.00
2013,04,23,13,11,13.10
2013,04,23,13,12,13.20
2013,04,23,13,13,13.30
2013,04,23,13,14,13.30
2013,04,23,13,15,13.30
2013,04,23,13,16,13.30
2013,04,23,13,17,13.30
2013,04,23,13,18,13.30
2013,04,23,13,19,13.30
2013,04,23,13,20,13.30
2013,04,23,13,21,13.30
2013,04,23,13,22,13.40
2013,04,23,13,23,13.40
2013,04,23,13,24,13.40
2013,04,23,13,25,13.30
2013,04,23,13,26,13.20
2013,04,23,13,27,13.00
2013,04,23,13,28,13.00
2013,04,23,13,29,12.90
2013,04,23,13,30,12.90
2013,04,23,13,31,12.90
2013,04,23,13,32,13.00
2013,04,23,13,33,13.10
2013,04,23,13,34,13.20
2013,04,23,13,35,13.40
2013,04,23,13,36,13.60
2013,04,23,13,37,13.60
2013,04,23,13,38,13.60
2013,04,23,13,39,13.60
2013,04,23,13,40,13.70
2013,04,23,13,41,13.60
2013,04,23,13,42,13.50
2013,04,23,13,43,13.40
2013,04,23,13,44,13.30
2013,04,23,13,45,13.30
2013,04,23,13,46,13.40
2013,04,23,13,47,13.50
2013,04,23,13,48,13.60
2013,04,23,13,49,13.70
2013,04,23,13,50,13.70
2013,04,23,13,51,13.70
2013,04,23,13,52,13.70
2013,04,23,13,53,13.60
2013,04,23,13,54,13.60
2013,04,23,13,55,13.60
2013,04,23,13,56,13.70
2013,04,23,13,57,13.70
2013,04,23,13,58,13.70
2013,04,23,13,59,13.50
2013,04,23,14,00,13.40
2013,04,23,14,01,13.40
2013,04,23,14,02,13.30
2013,04,23,14,03,13.30
2013,04,23,14,04,13.30
2013,04,23,14,05,13.40
2013,04,23,14,06,13.40
2013,04,23,14,07,13.40
2013,04,23,14,08,13.40
2013,04,23,14,09,13.50
2013,04,23,14,10,13.60
2013,04,23,14,11,13.70
2013,04,23,14,12,13.90
2013,04,23,14,13,14.00
2013,04,23,14,14,14.10
2013,04,23,14,15,14.30
2013,04,23,14,16,14.30
2013,04,23,14,17,14.40
2013,04,23,14,18,14.40
2013,04,23,14,19,14.50
2013,04,23,14,20,14.40
2013,04,23,14,21,14.40
2013,04,23,14,22,14.50
2013,04,23,14,23,14.50
2013,04,23,14,24,14.50
2013,04,23,14,25,14.50
2013,04,23,14,26,14.50
2013,04,23,14,27,14.60
2013,04,23,14,28,14.60
2013,04,23,14,29,14.60
2013,04,23,14,30,14.60
2013,04,23,14,31,14.60
2013,04,23,14,32,14.60
2013,04,23,14,33,14.60
2013,04,23,14,34,14.60
2013,04,23,14,35,14.70
2013,04,23,14,36,14.70
2013,04,23,14,37,14.80
2013,04,23,14,38,14.80
2013,04,23,14,39,14.80
2013,04,23,14,40,14.80
2013,04,23,14,41,14.70
2013,04,23,14,42,14.70
2013,04,23,14,43,14.70
2013,04,23,14,44,14.70
2013,04,23,14,45,14.60
2013,04,23,14,46,14.60
2013,04,23,14,47,14.50
2013,04,23,14,48,14.50
2013,04,23,14,49,14.40
2013,04,23,14,50,14.40
2013,04,23,14,51,14.40
2013,04,23,14,52,14.40
2013,04,23,14,53,14.40
2013,04,23,14,54,14.50
2013,04,23,14,55,14.50
2013,04,23,14,56,14.60
2013,04,23,14,57,14.60
2013,04,23,14,58,14.70
2013,04,23,14,59,14.80
2013,04,23,15,00,14.90
2013,04,23,15,01,15.00
2013,04,23,15,02,15.00
2013,04,23,15,03,15.00
2013,04,23,15,04,15.00
2013,04,23,15,05,15.00
2013,04,23,15,06,14.90
2013,04,23,15,07,15.00
2013,04,23,15,08,15.00
2013,04,23,15,09,15.00
2013,04,23,15,10,15.00
2013,04,23,15,11,15.00
2013,04,23,15,12,15.00
2013,04,23,15,13,15.00
2013,04,23,15,14,15.00
2013,04,23,15,15,15.00
2013,04,23,15,16,15.00
2013,04,23,15,17,15.00
2013,04,23,15,18,15.00
2013,04,23,15,19,15.00
2013,04,23,15,20,15.00
2013,04,23,15,21,15.10
2013,04,23,15,22,15.20
2013,04,23,15,23,15.30
2013,04,23,15,24,15.40
2013,04,23,15,25,15.40
2013,04,23,15,26,15.30
2013,04,23,15,27,15.30
2013,04,23,15,28,15.10
2013,04,23,15,29,15.00
2013,04,23,15,30,15.00
2013,04,23,15,31,15.00
2013,04,23,15,32,14.90
2013,04,23,15,33,14.70
2013,04,23,15,34,14.60
2013,04,23,15,35,14.60
2013,04,23,15,36,14.60
2013,04,23,15,37,14.60
2013,04,23,15,38,14.60
2013,04,23,15,39,14.60
2013,04,23,15,40,14.60
2013,04,23,15,41,14.60
2013,04,23,15,42,14.60
2013,04,23,15,43,14.50
2013,04,23,15,44,14.50
2013,04,23,15,45,14.50
2013,04,23,15,46,14.60
2013,04,23,15,47,14.60
2013,04,23,15,48,14.60
2013,04,23,15,49,14.60
2013,04,23,15,50,14.60
2013,04,23,15,51,14.60
2013,04,23,15,52,14.70
2013,04,23,15,53,14.80
2013,04,23,15,54,14.80
2013,04,23,15,55,14.80
2013,04,23,15,56,14.80
2013,04,23,15,57,14.70
2013,04,23,15,58,14.70
2013,04,23,15,59,14.70
2013,04,23,16,00,14.80
2013,04,23,16,01,14.90
2013,04,23,16,02,15.00
2013,04,23,16,03,15.00
2013,04,23,16,04,15.00
2013,04,23,16,05,15.00
2013,04,23,16,06,15.10
2013,04,23,16,07,15.20
2013,04,23,16,08,15.10
2013,04,23,16,09,15.10
2013,04,23,16,10,15.00
2013,04,23,16,11,15.00
2013,04,23,16,12,15.00
2013,04,23,16,13,15.00
2013,04,23,16,14,14.90
2013,04,23,16,15,14.80
2013,04,23,16,16,14.70
2013,04,23,16,17,14.70
2013,04,23,16,18,14.70
2013,04,23,16,19,14.70
2013,04,23,16,20,14.70
2013,04,23,16,21,14.80
2013,04,23,16,22,14.80
2013,04,23,16,23,14.80
2013,04,23,16,24,14.70
2013,04,23,16,25,14.80
2013,04,23,16,26,14.70
2013,04,23,16,27,14.80
2013,04,23,16,28,14.80
2013,04,23,16,29,14.90
2013,04,23,16,30,15.00
2013,04,23,16,31,15.00
2013,04,23,16,32,15.00
2013,04,23,16,33,15.00
2013,04,23,16,34,15.00
2013,04,23,16,35,14.90
2013,04,23,16,36,14.80
2013,04,23,16,37,14.80
2013,04,23,16,38,14.80
2013,04,23,16,39,14.70
2013,04,23,16,40,14.80
2013,04,23,16,41,14.80
2013,04,23,16,42,14.80
2013,04,23,16,43,14.80
2013,04,23,16,44,14.80
2013,04,23,16,45,14.90
2013,04,23,16,46,15.00
2013,04,23,16,47,15.00
2013,04,23,16,48,15.00
2013,04,23,16,49,15.00
2013,04,23,16,50,15.00
2013,04,23,16,51,15.00
2013,04,23,16,52,15.00
2013,04,23,16,53,14.90
2013,04,23,16,54,14.90
2013,04,23,16,55,14.90
2013,04,23,16,56,14.90
2013,04,23,16,57,15.00
2013,04,23,16,58,15.00
2013,04,23,16,59,15.00
2013,04,23,17,00,15.00
2013,04,23,17,01,15.00
2013,04,23,17,02,15.00
2013,04,23,17,03,15.10
2013,04,23,17,04,15.20
2013,04,23,17,05,15.20
2013,04,23,17,06,15.30
2013,04,23,17,07,15.30
2013,04,23,17,08,15.30
2013,04,23,17,09,15.30
2013,04,23,17,10,15.30
2013,04,23,17,11,15.30
2013,04,23,17,12,15.30
2013,04,23,17,13,15.30
2013,04,23,17,14,15.30
2013,04,23,17,15,15.30
2013,04,23,17,16,15.30
2013,04,23,17,17,15.30
2013,04,23,17,18,15.30
2013,04,23,17,19,15.40
2013,04,23,17,20,15.40
2013,04,23,17,21,15.40
2013,04,23,17,22,15.40
2013,04,23,17,23,15.40
2013,04,23,17,24,15.40
2013,04,23,17,25,15.40
2013,04,23,17,26,15.30
2013,04,23,17,27,15.30
2013,04,23,17,28,15.30
2013,04,23,17,29,15.30
2013,04,23,17,30,15.20
2013,04,23,17,31,15.20
2013,04,23,17,32,15.10
2013,04,23,17,33,15.10
2013,04,23,17,34,15.10
2013,04,23,17,35,15.20
2013,04,23,17,36,15.20
2013,04,23,17,37,15.20
2013,04,23,17,38,15.30
2013,04,23,17,39,15.30
2013,04,23,17,40,15.30
2013,04,23,17,41,15.30
2013,04,23,17,42,15.30
2013,04,23,17,43,15.30
2013,04,23,17,44,15.20
2013,04,23,17,45,15.30
2013,04,23,17,46,15.30
2013,04,23,17,47,15.30